Location: Tel Aviv
(32.0670°N, 34.7670°E)
Time: 04:06:12
(UTC+03:00)

Vanguard 2 - Pass Details

Date: 29 January 2022
Orbit: 552 x 2935 km, 32.9° (Epoch: 25 May)

Event Time Altitude Azimuth Distance (km) Brightness Sun altitude
Rises 02:21:31 0° 280° (W) 6,025 - -54.0°
Reaches altitude 10° 02:25:58 10° 271° (W) 5,288 - -53.0°
Maximum altitude 02:38:55 29° 219° (SW) 4,312 - -50.4°
Exits shadow 02:46:53 21° 184° (S) 4,826 11.4 -48.7°
Drops below altitude 10° 02:52:46 10° 167° (SSE) 5,604 11.9 -47.5°
Sets 02:57:47 0° 157° (SSE) 6,421 12.4 -46.4°
